Regional Weather Roundup
Issued by NWS Goodland, KS

Home | Current Version | Previous Version | Text Only | Print | Product List | Glossary On
Versions: 1 2 3 4 5 6 7 8 9 10 11 12 13 14 15 16 17 18 19 20 21 22 23 24 25 26 27 28 29 30 31 32 33 34 35 36 37 38 39 40 41 42 43 44 45 46 47 48 49 50
000
ASUS43 KGLD 300008
RWRGLD

GOODLAND FORECAST AREA HOURLY WEATHER ROUNDUP
NATIONAL WEATHER SERVICE GOODLAND KS
600 PM MDT SUN MAY 29 2016

...OFFICIAL OBSERVATIONS...

CITY           SKY/WX    TMP DP  RH WIND       PRES   REMARKS
GOODLAND KS    CLOUDY    65  50  58 SE20G30   30.03R
HILL CITY KS   LGT RAIN  69  50  50 S23G37    30.03F
IMPERIAL NEB   CLOUDY    69  53  56 SE17G29   29.99R THUNDER
MCCOOK NEB     CLOUDY    69  55  60 SE9G21    29.99R
AKRON CO       CLOUDY    76  44  32 E3        30.02F
BURLINGTON CO  CLOUDY    80  41  24 W3        30.00F
LIMON CO       CLOUDY    64  46  52 W3        30.08F
$$

...UNOFFICIAL OBSERVATIONS...

CITY           SKY/WX    TMP DP  RH WIND       PRES   REMARKS
GOVE KS          N/A     75  32  20 MISG        N/A
LENORA KS        N/A     70  32  24 MISG        N/A
SHARON SPRINGS   N/A     67  56  67 S20G29      N/A
KIT CARSON CO    N/A     81  46  28 CALM        N/A
YUMA CO          N/A     78  48  34 CALM        N/A
$$




USA.gov is the U.S. government's official web portal to all federal, state and local government web resources and services.